Tracking 18844 objects as of 21-Nov-2017
HD Live streaming from Space Station
objects crossing your sky now

FENGYUN 1C DEB

Track FENGYUN 1C DEB now!
10-day predictions


NORAD ID: 31855
Int'l Code: 1999-025CJV
Perigee: 450.6 km
Apogee: 757.1 km
Inclination: 96.6 °
Period: 96.6 minutes
Semi major axis: 6974 km
RCS: 0.0172 m2 (small)
Launch date: May 10, 1999
Source: People's Republic of China (PRC)
Launch site: Taiyaun Space Center, China (TSC)

Note: This is SATELLITE DEBRIS
aabbcc
Your satellite tracking list
Your tracking list is empty




NASA's NSSDC Master Catalog

Two Line Element Set (TLE):
1 31855U 99025CJV 17320.22418837  .00003613  00000-0  23723-3 0  9998
2 31855  96.6445 318.1662 0219739 182.3418 177.6796 14.90400726559884
Source of the keplerian elements: AFSPC